| time (UTC) | temp C | wind direction | speed KPH | gust KPH | rain 1hr cm | rain 24hr cm | rain mn cm | humidity % | barometer mb |
| 20260503021502 | 5 | 77 | 1.6 | 9.7 | 0.00 | 0.28 | 0.00 | 87 | 1010.7 |
| 20260503021002 | 5 | 74 | 1.6 | 9.7 | 0.00 | 0.28 | 0.00 | 87 | 1010.7 |
| 20260503020502 | 5 | 29 | 0.0 | 9.7 | 0.00 | 0.28 | 0.00 | 87 | 1010.6 |
| 20260503020002 | 5 | 340 | 1.6 | 9.7 | 0.00 | 0.28 | 0.00 | 87 | 1010.7 |
| 20260503015504 | 5 | 50 | 1.6 | 9.7 | 0.00 | 0.28 | 0.00 | 87 | 1010.7 |
| 20260503015005 | 5 | 57 | 1.6 | 9.7 | 0.00 | 0.28 | 0.00 | 87 | 1010.6 |
| 20260503014620 | 6 | 80 | 1.6 | 9.7 | 0.00 | 0.28 | 0.00 | 87 | 1010.7 |
| 20260503014101 | 6 | 80 | 1.6 | 9.7 | 0.00 | 0.28 | 0.00 | 87 | 1010.8 |
| 20260503013600 | 6 | 5 | 0.0 | 9.7 | 0.00 | 0.28 | 0.00 | 87 | 1010.7 |
| 20260503013117 | 6 | 5 | 0.0 | 9.7 | 0.00 | 0.28 | 0.00 | 87 | 1010.7 |
| 20260503012600 | 6 | 328 | 0.0 | 9.7 | 0.00 | 0.28 | 0.00 | 87 | 1010.7 |
| 20260503012059 | 6 | 317 | 3.2 | 9.7 | 0.00 | 0.28 | 0.00 | 87 | 1010.6 |
| 20260503011558 | 6 | 323 | 1.6 | 9.7 | 0.00 | 0.28 | 0.00 | 87 | 1010.7 |
| 20260503011058 | 6 | 13 | 0.0 | 9.7 | 0.00 | 0.28 | 0.00 | 87 | 1010.6 |
| 20260503010556 | 6 | 13 | 0.0 | 9.7 | 0.00 | 0.28 | 0.00 | 87 | 1010.7 |
| 20260503010056 | 6 | 335 | 0.0 | 9.7 | 0.00 | 0.28 | 0.00 | 87 | 1010.7 |
| 20260503005600 | 6 | 335 | 0.0 | 9.7 | 0.00 | 0.28 | 0.00 | 87 | 1010.7 |
| 20260503005055 | 6 | 335 | 1.6 | 9.7 | 0.00 | 0.28 | 0.00 | 87 | 1010.9 |
| 20260503004604 | 6 | 44 | 0.0 | 9.7 | 0.00 | 0.28 | 0.00 | 87 | 1010.9 |
| 20260503004056 | 6 | 44 | 0.0 | 9.7 | 0.00 | 0.28 | 0.00 | 87 | 1011.0 |
| 20260503003555 | 6 | 44 | 1.6 | 9.7 | 0.00 | 0.28 | 0.00 | 87 | 1011.0 |
| 20260503003054 | 6 | 5 | 1.6 | 9.7 | 0.00 | 0.28 | 0.00 | 87 | 1010.9 |
| 20260503002557 | 6 | 27 | 0.0 | 8.0 | 0.00 | 0.28 | 0.00 | 87 | 1011.0 |
| 20260503002054 | 6 | 348 | 1.6 | 8.0 | 0.00 | 0.28 | 0.00 | 87 | 1011.0 |
| 20260503001556 | 6 | 323 | 1.6 | 8.0 | 0.00 | 0.28 | 0.00 | 87 | 1011.0 |
| 20260503001057 | 6 | 317 | 1.6 | 6.4 | 0.00 | 0.28 | 0.00 | 87 | 1011.0 |
| 20260503000553 | 6 | 314 | 0.0 | 6.4 | 0.00 | 0.28 | 0.28 | 87 | 1011.0 |
| 20260503000057 | 6 | 67 | 0.0 | 16.1 | 0.00 | 0.28 | 0.28 | 87 | 1010.9 |
| 20260502235551 | 6 | 67 | 3.2 | 16.1 | 0.00 | 0.28 | 0.28 | 87 | 1011.0 |
| 20260502235051 | 6 | 5 | 1.6 | 16.1 | 0.00 | 0.28 | 0.28 | 87 | 1011.1 |
| 20260502234602 | 6 | 55 | 0.0 | 16.1 | 0.00 | 0.28 | 0.28 | 88 | 1011.2 |
| 20260502234052 | 6 | 55 | 0.0 | 16.1 | 0.00 | 0.28 | 0.28 | 88 | 1011.2 |
| 20260502233550 | 6 | 121 | 0.0 | 16.1 | 0.00 | 0.28 | 0.28 | 87 | 1011.2 |
| 20260502233051 | 6 | 36 | 1.6 | 16.1 | 0.00 | 0.28 | 0.28 | 88 | 1011.2 |
| 20260502232550 | 7 | 309 | 0.0 | 16.1 | 0.00 | 0.28 | 0.28 | 88 | 1011.1 |
| 20260502232050 | 7 | 329 | 1.6 | 16.1 | 0.00 | 0.28 | 0.28 | 88 | 1011.1 |
| 20260502231550 | 7 | 321 | 3.2 | 16.1 | 0.00 | 0.28 | 0.28 | 88 | 1011.1 |
| 20260502231049 | 7 | 344 | 4.8 | 16.1 | 0.00 | 0.28 | 0.28 | 88 | 1011.1 |
| 20260502230549 | 7 | 360 | 6.4 | 16.1 | 0.00 | 0.28 | 0.28 | 88 | 1011.1 |
| 20260502230048 | 7 | 9 | 4.8 | 16.1 | 0.00 | 0.28 | 0.28 | 88 | 1011.0 |
| 20260502225551 | 7 | 360 | 3.2 | 16.1 | 0.00 | 0.28 | 0.28 | 88 | 1011.0 |
| 20260502225047 | 7 | 309 | 4.8 | 16.1 | 0.00 | 0.28 | 0.28 | 88 | 1011.0 |
| 20260502224547 | 7 | 360 | 6.4 | 16.1 | 0.00 | 0.28 | 0.28 | 89 | 1010.8 |
| 20260502224046 | 7 | 5 | 6.4 | 16.1 | 0.00 | 0.28 | 0.28 | 89 | 1010.8 |
| 20260502223546 | 7 | 317 | 6.4 | 16.1 | 0.00 | 0.28 | 0.28 | 88 | 1010.8 |
| 20260502223058 | 7 | 331 | 4.8 | 16.1 | 0.00 | 0.28 | 0.28 | 88 | 1010.8 |
| 20260502222546 | 7 | 313 | 6.4 | 16.1 | 0.00 | 0.28 | 0.28 | 88 | 1010.9 |
| 20260502222047 | 7 | 340 | 6.4 | 16.1 | 0.00 | 0.28 | 0.28 | 88 | 1010.8 |
| 20260502221546 | 7 | 336 | 8.0 | 16.1 | 0.00 | 0.28 | 0.28 | 88 | 1010.9 |
| 20260502221046 | 7 | 5 | 8.0 | 16.1 | 0.00 | 0.28 | 0.28 | 88 | 1010.9 |
| 20260502220544 | 7 | 360 | 8.0 | 14.5 | 0.00 | 0.28 | 0.28 | 88 | 1011.0 |
| 20260502220047 | 7 | 346 | 8.0 | 14.5 | 0.00 | 0.28 | 0.28 | 88 | 1011.0 |
| 20260502215543 | 7 | 355 | 8.0 | 14.5 | 0.00 | 0.28 | 0.28 | 88 | 1011.0 |
| 20260502215041 | 7 | 360 | 6.4 | 14.5 | 0.00 | 0.28 | 0.28 | 87 | 1011.0 |
| 20260502214604 | 7 | 333 | 6.4 | 12.9 | 0.00 | 0.28 | 0.28 | 87 | 1011.0 |
| 20260502214041 | 7 | 355 | 6.4 | 12.9 | 0.00 | 0.28 | 0.28 | 86 | 1011.0 |
| 20260502213545 | 7 | 5 | 3.2 | 12.9 | 0.00 | 0.28 | 0.28 | 86 | 1011.1 |
| 20260502213100 | 7 | 336 | 3.2 | 12.9 | 0.00 | 0.28 | 0.28 | 86 | 1011.1 |
| 20260502212541 | 8 | 318 | 4.8 | 12.9 | 0.00 | 0.28 | 0.28 | 86 | 1011.1 |
| 20260502212040 | 8 | 360 | 6.4 | 12.9 | 0.00 | 0.28 | 0.28 | 86 | 1011.1 |
| 20260502211543 | 8 | 320 | 4.8 | 9.7 | 0.00 | 0.28 | 0.28 | 85 | 1011.1 |
| 20260502211043 | 8 | 331 | 1.6 | 9.7 | 0.00 | 0.28 | 0.28 | 85 | 1011.0 |
| 20260502210540 | 8 | 308 | 3.2 | 9.7 | 0.00 | 0.28 | 0.28 | 85 | 1011.0 |
| 20260502210040 | 8 | 5 | 3.2 | 9.7 | 0.00 | 0.28 | 0.28 | 85 | 1011.0 |
| 20260502205539 | 8 | 360 | 4.8 | 9.7 | 0.00 | 0.28 | 0.28 | 85 | 1011.0 |
| 20260502205039 | 8 | 360 | 0.0 | 4.8 | 0.00 | 0.28 | 0.28 | 84 | 1011.0 |
| 20260502204541 | 8 | 64 | 0.0 | 3.2 | 0.00 | 0.28 | 0.28 | 84 | 1010.9 |
| 20260502204044 | 8 | 50 | 0.0 | 3.2 | 0.00 | 0.28 | 0.28 | 83 | 1010.9 |
| 20260502203539 | 8 | 50 | 0.0 | 9.7 | 0.00 | 0.28 | 0.28 | 83 | 1010.9 |
| 20260502203104 | 8 | 50 | 0.0 | 9.7 | 0.00 | 0.28 | 0.28 | 83 | 1010.9 |
| 20260502202539 | 8 | 50 | 0.0 | 9.7 | 0.00 | 0.28 | 0.28 | 83 | 1010.9 |
| 20260502202042 | 8 | 50 | 0.0 | 9.7 | 0.00 | 0.28 | 0.28 | 82 | 1010.9 |
| 20260502201543 | 8 | 50 | 3.2 | 9.7 | 0.00 | 0.28 | 0.28 | 82 | 1010.8 |
| 20260502201039 | 8 | 38 | 3.2 | 9.7 | 0.00 | 0.28 | 0.28 | 82 | 1010.7 |
| 20260502200539 | 8 | 35 | 1.6 | 9.7 | 0.00 | 0.28 | 0.28 | 82 | 1010.7 |
| 20260502200045 | 8 | 47 | 1.6 | 9.7 | 0.00 | 0.28 | 0.28 | 81 | 1010.6 |
| 20260502195539 | 8 | 34 | 1.6 | 9.7 | 0.00 | 0.28 | 0.28 | 81 | 1010.7 |
| 20260502195038 | 8 | 61 | 3.2 | 9.7 | 0.00 | 0.28 | 0.28 | 81 | 1010.6 |
| 20260502194539 | 8 | 56 | 1.6 | 9.7 | 0.00 | 0.28 | 0.28 | 81 | 1010.4 |
| 20260502194039 | 8 | 67 | 1.6 | 9.7 | 0.00 | 0.28 | 0.28 | 81 | 1010.4 |
| 20260502193539 | 8 | 75 | 3.2 | 9.7 | 0.00 | 0.28 | 0.28 | 81 | 1010.4 |
| 20260502193039 | 8 | 73 | 3.2 | 9.7 | 0.00 | 0.28 | 0.28 | 81 | 1010.4 |
| 20260502192538 | 8 | 47 | 1.6 | 9.7 | 0.00 | 0.28 | 0.28 | 81 | 1010.5 |
| 20260502192038 | 8 | 64 | 1.6 | 9.7 | 0.00 | 0.28 | 0.28 | 82 | 1010.4 |
| 20260502191543 | 8 | 68 | 1.6 | 9.7 | 0.00 | 0.28 | 0.28 | 82 | 1010.4 |
| 20260502191038 | 8 | 54 | 3.2 | 9.7 | 0.00 | 0.28 | 0.28 | 82 | 1010.4 |
| 20260502190541 | 8 | 41 | 1.6 | 9.7 | 0.00 | 0.28 | 0.28 | 82 | 1010.5 |
| 20260502190038 | 8 | 46 | 3.2 | 9.7 | 0.00 | 0.28 | 0.28 | 82 | 1010.6 |
| 20260502185537 | 8 | 49 | 1.6 | 9.7 | 0.00 | 0.28 | 0.28 | 82 | 1010.7 |
| 20260502185041 | 8 | 26 | 3.2 | 9.7 | 0.00 | 0.28 | 0.28 | 81 | 1010.6 |
| 20260502184537 | 9 | 28 | 3.2 | 9.7 | 0.00 | 0.28 | 0.28 | 79 | 1010.6 |
| 20260502184037 | 9 | 37 | 3.2 | 9.7 | 0.00 | 0.28 | 0.28 | 79 | 1010.6 |
| 20260502183537 | 9 | 28 | 3.2 | 9.7 | 0.00 | 0.28 | 0.28 | 79 | 1010.6 |
| 20260502183038 | 9 | 36 | 1.6 | 9.7 | 0.00 | 0.28 | 0.28 | 80 | 1010.6 |
| 20260502182537 | 8 | 37 | 0.0 | 9.7 | 0.00 | 0.28 | 0.28 | 80 | 1010.5 |
| 20260502182040 | 8 | 37 | 3.2 | 9.7 | 0.00 | 0.28 | 0.28 | 81 | 1010.5 |
| 20260502181536 | 8 | 33 | 3.2 | 9.7 | 0.00 | 0.28 | 0.28 | 82 | 1010.5 |
| 20260502181038 | 8 | 48 | 4.8 | 9.7 | 0.00 | 0.28 | 0.28 | 83 | 1010.5 |
| 20260502180536 | 8 | 65 | 3.2 | 8.0 | 0.00 | 0.28 | 0.28 | 84 | 1010.6 |
| 20260502164032 | 8 | 46 | 0.0 | 6.4 | 0.00 | 0.28 | 0.28 | 88 | 1011.0 |
| 20260502163531 | 8 | 42 | 1.6 | 6.4 | 0.00 | 0.28 | 0.28 | 88 | 1011.1 |
| 20260502163040 | 8 | 34 | 1.6 | 6.4 | 0.00 | 0.28 | 0.28 | 88 | 1011.1 |
| 20260502162533 | 8 | 5 | 3.2 | 6.4 | 0.00 | 0.28 | 0.28 | 88 | 1011.1 |
| 20260502162030 | 8 | 13 | 0.0 | 6.4 | 0.00 | 0.28 | 0.28 | 88 | 1011.1 |
| 20260502161542 | 8 | 13 | 0.0 | 6.4 | 0.00 | 0.28 | 0.28 | 88 | 1011.1 |
| 20260502161029 | 8 | 13 | 0.0 | 6.4 | 0.00 | 0.28 | 0.28 | 88 | 1011.2 |
| 20260502160529 | 8 | 13 | 0.0 | 6.4 | 0.00 | 0.28 | 0.28 | 88 | 1011.2 |
| 20260502152027 | 8 | 355 | 1.6 | 3.2 | 0.00 | 0.28 | 0.28 | 88 | 1011.5 |
| 20260502151525 | 8 | 317 | 0.0 | 3.2 | 0.00 | 0.28 | 0.28 | 89 | 1011.5 |
| 20260502151025 | 8 | 317 | 1.6 | 3.2 | 0.00 | 0.28 | 0.28 | 88 | 1011.5 |
| 20260502150525 | 8 | 275 | 0.0 | 3.2 | 0.00 | 0.28 | 0.28 | 89 | 1011.7 |
| 20260502130523 | 7 | 202 | 1.6 | 8.0 | 0.00 | 0.28 | 0.28 | 88 | 1012.5 |
| 20260502123520 | 7 | 5 | 0.0 | 8.0 | 0.00 | 0.28 | 0.28 | 88 | 1012.5 |
| 20260502123030 | 7 | 5 | 0.0 | 8.0 | 0.00 | 0.28 | 0.28 | 88 | 1012.6 |
| 20260502122520 | 7 | 5 | 0.0 | 8.0 | 0.00 | 0.28 | 0.28 | 88 | 1012.6 |
| 20260502122020 | 7 | 5 | 0.0 | 8.0 | 0.00 | 0.28 | 0.28 | 88 | 1012.5 |
| 20260502121525 | 7 | 5 | 1.6 | 8.0 | 0.00 | 0.28 | 0.28 | 89 | 1012.4 |
| 20260502121020 | 7 | 5 | 3.2 | 8.0 | 0.03 | 0.28 | 0.28 | 89 | 1012.4 |
| 20260502120523 | 7 | 5 | 4.8 | 8.0 | 0.03 | 0.28 | 0.28 | 89 | 1012.3 |
| 20260502115521 | 7 | 24 | 1.6 | 8.0 | 0.05 | 0.28 | 0.28 | 89 | 1012.1 |
| 20260502115018 | 7 | 19 | 1.6 | 8.0 | 0.05 | 0.28 | 0.28 | 89 | 1012.2 |
| 20260502114517 | 7 | 15 | 3.2 | 8.0 | 0.05 | 0.28 | 0.28 | 89 | 1012.5 |
| 20260502114019 | 7 | 9 | 3.2 | 8.0 | 0.05 | 0.28 | 0.28 | 89 | 1012.5 |
| 20260502113523 | 7 | 5 | 3.2 | 8.0 | 0.05 | 0.28 | 0.28 | 89 | 1012.6 |
| 20260502113021 | 7 | 360 | 4.8 | 8.0 | 0.05 | 0.28 | 0.28 | 89 | 1012.7 |
| 20260502112519 | 7 | 9 | 4.8 | 8.0 | 0.05 | 0.28 | 0.28 | 89 | 1012.5 |
| 20260502112018 | 7 | 360 | 4.8 | 8.0 | 0.05 | 0.28 | 0.28 | 89 | 1012.6 |
| 20260502111517 | 7 | 5 | 1.6 | 8.0 | 0.05 | 0.28 | 0.28 | 89 | 1012.6 |
| 20260502111018 | 7 | 5 | 1.6 | 8.0 | 0.05 | 0.28 | 0.28 | 89 | 1012.7 |
| 20260502110517 | 7 | 5 | 1.6 | 8.0 | 0.05 | 0.25 | 0.25 | 89 | 1012.8 |
| 20260502110021 | 7 | 25 | 1.6 | 8.0 | 0.05 | 0.25 | 0.25 | 89 | 1012.9 |
| 20260502105522 | 8 | 27 | 1.6 | 8.0 | 0.05 | 0.23 | 0.23 | 89 | 1012.9 |
| 20260502105017 | 7 | 42 | 1.6 | 8.0 | 0.05 | 0.23 | 0.23 | 89 | 1012.9 |
| 20260502104519 | 8 | 24 | 1.6 | 4.8 | 0.05 | 0.23 | 0.23 | 88 | 1012.9 |
| 20260502104016 | 8 | 39 | 1.6 | 4.8 | 0.05 | 0.23 | 0.23 | 88 | 1012.9 |
| 20260502103516 | 8 | 28 | 1.6 | 4.8 | 0.08 | 0.23 | 0.23 | 88 | 1012.9 |
| 20260502103018 | 8 | 34 | 1.6 | 4.8 | 0.08 | 0.23 | 0.23 | 88 | 1012.8 |
| 20260502102516 | 7 | 13 | 1.6 | 4.8 | 0.05 | 0.23 | 0.23 | 88 | 1012.8 |
| 20260502102015 | 8 | 19 | 1.6 | 6.4 | 0.08 | 0.23 | 0.23 | 88 | 1012.8 |
| 20260502101516 | 7 | 11 | 1.6 | 6.4 | 0.08 | 0.23 | 0.23 | 88 | 1012.8 |
| 20260502101015 | 7 | 28 | 1.6 | 6.4 | 0.08 | 0.23 | 0.23 | 87 | 1012.8 |
| 20260502100515 | 7 | 46 | 3.2 | 6.4 | 0.08 | 0.23 | 0.23 | 87 | 1012.8 |
| 20260502091512 | 8 | 103 | 0.0 | 4.8 | 0.05 | 0.15 | 0.15 | 86 | 1012.8 |
| 20260502091012 | 8 | 103 | 0.0 | 4.8 | 0.05 | 0.15 | 0.15 | 86 | 1012.8 |
| 20260502090512 | 8 | 103 | 0.0 | 4.8 | 0.05 | 0.15 | 0.15 | 86 | 1012.8 |
| 20260502071505 | 9 | 123 | 0.0 | 6.4 | 0.00 | 0.00 | 0.00 | 76 | 1012.7 |
| 20260502071004 | 9 | 115 | 3.2 | 6.4 | 0.00 | 0.00 | 0.00 | 75 | 1012.6 |
| 20260502070507 | 9 | 61 | 1.6 | 6.4 | 0.00 | 0.00 | 0.00 | 74 | 1012.6 |
| 20260502070004 | 9 | 5 | 0.0 | 3.2 | 0.00 | 0.00 | 0.00 | 73 | 1012.7 |
| 20260502065504 | 9 | 29 | 0.0 | 3.2 | 0.00 | 0.00 | 0.00 | 73 | 1012.7 |
| 20260502065004 | 9 | 29 | 0.0 | 6.4 | 0.00 | 0.00 | 0.00 | 72 | 1012.6 |
| 20260502064504 | 9 | 22 | 1.6 | 6.4 | 0.00 | 0.00 | 0.00 | 71 | 1012.5 |
| 20260502064005 | 9 | 22 | 1.6 | 6.4 | 0.00 | 0.00 | 0.00 | 71 | 1012.5 |
| 20260502063506 | 10 | 5 | 3.2 | 8.0 | 0.00 | 0.00 | 0.00 | 72 | 1012.6 |
| 20260502063006 | 10 | 5 | 1.6 | 8.0 | 0.00 | 0.00 | 0.00 | 68 | 1012.6 |
| 20260502062504 | 9 | 50 | 3.2 | 12.9 | 0.00 | 0.00 | 0.00 | 66 | 1012.6 |
| 20260502062004 | 9 | 31 | 4.8 | 12.9 | 0.00 | 0.00 | 0.00 | 66 | 1012.6 |
| 20260502061503 | 9 | 26 | 1.6 | 12.9 | 0.00 | 0.00 | 0.00 | 66 | 1012.6 |
| 20260502061004 | 9 | 14 | 1.6 | 12.9 | 0.00 | 0.00 | 0.00 | 66 | 1012.7 |
| 20260502060503 | 9 | 42 | 3.2 | 12.9 | 0.00 | 0.00 | 0.00 | 66 | 1012.6 |
| 20260502060003 | 9 | 15 | 1.6 | 12.9 | 0.00 | 0.00 | 0.00 | 67 | 1012.6 |
| 20260502055502 | 9 | 29 | 1.6 | 12.9 | 0.00 | 0.00 | 0.00 | 66 | 1012.7 |
| 20260502055002 | 9 | 221 | 3.2 | 12.9 | 0.00 | 0.00 | 0.00 | 64 | 1012.7 |
| 20260502054501 | 9 | 122 | 4.8 | 12.9 | 0.00 | 0.00 | 0.00 | 65 | 1012.8 |
| 20260502054001 | 9 | 132 | 3.2 | 12.9 | 0.00 | 0.00 | 0.00 | 65 | 1012.8 |
| 20260502053600 | 9 | 192 | 0.0 | 12.9 | 0.00 | 0.00 | 0.00 | 67 | 1013.0 |
| 20260502053101 | 9 | 242 | 3.2 | 12.9 | 0.00 | 0.00 | 0.00 | 65 | 1012.9 |
| 20260502052600 | 9 | 216 | 6.4 | 12.9 | 0.00 | 0.00 | 0.00 | 68 | 1012.9 |
| 20260502052100 | 9 | 208 | 1.6 | 11.3 | 0.00 | 0.00 | 0.00 | 67 | 1013.0 |
| 20260502051608 | 9 | 94 | 0.0 | 11.3 | 0.00 | 0.00 | 0.00 | 66 | 1013.0 |
| 20260502051059 | 9 | 182 | 3.2 | 14.5 | 0.00 | 0.00 | 0.00 | 67 | 1013.1 |
| 20260502050559 | 9 | 199 | 8.0 | 14.5 | 0.00 | 0.00 | 0.00 | 69 | 1013.2 |
| 20260502050059 | 8 | 135 | 4.8 | 12.9 | 0.00 | 0.00 | 0.00 | 73 | 1013.2 |
| 20260502045602 | 8 | 153 | 3.2 | 6.4 | 0.00 | 0.00 | 0.00 | 74 | 1013.3 |
| 20260502045058 | 8 | 173 | 1.6 | 6.4 | 0.00 | 0.00 | 0.00 | 75 | 1013.3 |
| 20260502044623 | 9 | 51 | 0.0 | 6.4 | 0.00 | 0.00 | 0.00 | 75 | 1013.3 |
| 20260502043603 | 9 | 51 | 1.6 | 6.4 | 0.00 | 0.00 | 0.00 | 75 | 1013.3 |
| 20260502043104 | 8 | 44 | 1.6 | 6.4 | 0.00 | 0.00 | 0.00 | 75 | 1013.1 |
| 20260502042559 | 8 | 78 | 3.2 | 11.3 | 0.00 | 0.00 | 0.00 | 76 | 1013.0 |
| 20260502042102 | 8 | 191 | 3.2 | 11.3 | 0.00 | 0.00 | 0.00 | 75 | 1012.9 |
| 20260502041559 | 8 | 198 | 0.0 | 11.3 | 0.00 | 0.00 | 0.00 | 75 | 1012.9 |
| 20260502041101 | 9 | 62 | 1.6 | 11.3 | 0.00 | 0.00 | 0.00 | 75 | 1012.9 |
| 20260502040558 | 9 | 190 | 4.8 | 17.7 | 0.00 | 0.00 | 0.00 | 75 | 1012.9 |
| 20260502040105 | 9 | 207 | 9.7 | 17.7 | 0.00 | 0.00 | 0.00 | 74 | 1012.9 |
| 20260502035558 | 9 | 218 | 9.7 | 17.7 | 0.00 | 0.00 | 0.00 | 72 | 1012.8 |
| 20260502035058 | 10 | 228 | 6.4 | 17.7 | 0.00 | 0.00 | 0.00 | 68 | 1012.8 |
| 20260502034557 | 10 | 215 | 3.2 | 17.7 | 0.00 | 0.00 | 0.00 | 63 | 1012.9 |
| 20260502033556 | 10 | 212 | 8.0 | 17.7 | 0.00 | 0.00 | 0.00 | 61 | 1013.1 |
| 20260502033056 | 10 | 212 | 8.0 | 17.7 | 0.00 | 0.00 | 0.00 | 60 | 1013.1 |
| 20260502032556 | 10 | 206 | 9.7 | 17.7 | 0.00 | 0.00 | 0.00 | 51 | 1013.1 |
| 20260502032056 | 10 | 202 | 9.7 | 14.5 | 0.00 | 0.00 | 0.00 | 59 | 1013.2 |
| 20260502031554 | 10 | 209 | 8.0 | 14.5 | 0.00 | 0.00 | 0.00 | 51 | 1013.2 |
| 20260502031054 | 10 | 163 | 4.8 | 14.5 | 0.00 | 0.00 | 0.00 | 56 | 1013.3 |
| 20260502030552 | 10 | 211 | 8.0 | 16.1 | 0.00 | 0.00 | 0.00 | 60 | 1013.4 |
| 20260502030053 | 10 | 206 | 8.0 | 16.1 | 0.00 | 0.00 | 0.00 | 57 | 1013.4 |
| 20260502025554 | 10 | 211 | 6.4 | 16.1 | 0.00 | 0.00 | 0.00 | 62 | 1013.3 |
| 20260502025052 | 10 | 196 | 6.4 | 25.7 | 0.00 | 0.00 | 0.00 | 61 | 1013.4 |
| 20260502024551 | 10 | 198 | 6.4 | 25.7 | 0.00 | 0.00 | 0.00 | 56 | 1013.4 |
| 20260502023553 | 10 | 206 | 8.0 | 25.7 | 0.00 | 0.00 | 0.00 | 61 | 1013.6 |
| 20260502023053 | 10 | 202 | 12.9 | 25.7 | 0.00 | 0.00 | 0.00 | 63 | 1013.6 |
| 20260502022553 | 10 | 225 | 11.3 | 25.7 | 0.00 | 0.00 | 0.00 | 59 | 1013.7 |
| 20260502022052 | 10 | 210 | 11.3 | 25.7 | 0.00 | 0.00 | 0.00 | 60 | 1013.8 |